TimeAKST,TemperatureF,Dew PointF,Humidity,Sea Level PressureIn,VisibilityMPH,Wind Direction,Wind SpeedMPH,Gust SpeedMPH,PrecipitationIn,Events,Conditions,WindDirDegrees,DateUTC
12:56 AM,-4.0,-8.9,80,29.83,10.0,NE,13.8,-,N/A,,Clear,50,2013-01-05 09:56:00
1:56 AM,-2.9,-8.0,79,29.83,10.0,NE,15.0,-,N/A,,Clear,50,2013-01-05 10:56:00
2:35 AM,-4.0,-9.4,78,29.80,10.0,NE,15.0,-,N/A,,Scattered Clouds,40,2013-01-05 11:35:00
2:44 AM,-4.0,-9.4,78,29.80,10.0,NE,15.0,-,N/A,,Mostly Cloudy,40,2013-01-05 11:44:00
2:56 AM,-4.0,-8.9,80,29.82,10.0,NE,15.0,-,N/A,,Overcast,40,2013-01-05 11:56:00
3:56 AM,-2.9,-8.9,76,29.81,10.0,ENE,16.1,-,N/A,,Overcast,60,2013-01-05 12:56:00
4:56 AM,-2.9,-8.0,79,29.80,10.0,ENE,17.3,-,N/A,,Overcast,60,2013-01-05 13:56:00
5:56 AM,-2.2,-7.6,78,29.77,10.0,ENE,17.3,-,N/A,,Scattered Clouds,60,2013-01-05 14:56:00
6:43 AM,-2.2,-7.6,78,29.76,10.0,ENE,16.1,-,N/A,,Mostly Cloudy,60,2013-01-05 15:43:00
6:56 AM,-1.8,-6.9,79,29.78,10.0,ENE,18.4,-,N/A,,Mostly Cloudy,60,2013-01-05 15:56:00
7:02 AM,-2.2,-7.6,78,29.76,10.0,ENE,17.3,-,N/A,,Mostly Cloudy,60,2013-01-05 16:02:00
7:19 AM,-2.2,-7.6,78,29.76,10.0,ENE,17.3,-,N/A,,Scattered Clouds,60,2013-01-05 16:19:00
7:56 AM,-1.8,-6.9,79,29.77,7.0,ENE,21.9,-,N/A,,Partly Cloudy,70,2013-01-05 16:56:00
8:32 AM,-0.4,-5.8,78,29.76,10.0,ENE,18.4,-,N/A,,Mostly Cloudy,70,2013-01-05 17:32:00
8:56 AM,-0.9,-6.0,79,29.77,10.0,ENE,20.7,-,N/A,,Overcast,70,2013-01-05 17:56:00
9:56 AM,-0.9,-6.0,79,29.76,7.0,ENE,24.2,-,N/A,,Mostly Cloudy,70,2013-01-05 18:56:00
10:56 AM,-0.9,-6.0,79,29.77,5.0,ENE,23.0,29.9,N/A,,Haze,70,2013-01-05 19:56:00
11:56 AM,-2.9,-8.0,79,29.77,4.0,ENE,23.0,-,N/A,,Haze,70,2013-01-05 20:56:00
12:33 PM,-2.2,-7.6,78,29.75,2.5,ENE,27.6,-,N/A,,Haze,70,2013-01-05 21:33:00
12:49 PM,-4.0,-9.4,78,29.75,1.8,ENE,28.8,33.4,N/A,,Haze,70,2013-01-05 21:49:00
12:56 PM,-4.0,-8.9,80,29.77,1.5,ENE,25.3,33.4,N/A,,Haze,60,2013-01-05 21:56:00
1:20 PM,-4.0,-9.4,78,29.76,1.0,ENE,24.2,31.1,N/A,,Haze,70,2013-01-05 22:20:00
1:56 PM,-4.9,-9.9,79,29.77,0.5,ENE,27.6,36.8,N/A,,Haze,60,2013-01-05 22:56:00
2:56 PM,-5.8,-11.2,77,29.76,0.5,ENE,26.5,-,N/A,,Haze,60,2013-01-05 23:56:00
3:43 PM,-7.6,-11.2,84,29.75,0.2,ENE,28.8,33.4,0.00,Snow,Heavy Snow,60,2013-01-06 00:43:00
3:56 PM,-6.9,-11.9,79,29.77,0.5,ENE,28.8,32.2,0.00,Snow,Snow,60,2013-01-06 00:56:00
4:56 PM,-8.0,-13.0,79,29.77,0.5,ENE,29.9,35.7,0.00,Snow,Snow,60,2013-01-06 01:56:00
5:56 PM,-7.6,-13.0,77,29.76,0.5,ENE,29.9,38.0,N/A,Snow,Snow,70,2013-01-06 02:56:00
6:48 PM,-9.4,-14.8,77,29.75,0.2,ENE,31.1,39.1,0.00,Snow,Heavy Snow,70,2013-01-06 03:48:00
6:56 PM,-8.9,-13.9,79,29.76,0.2,ENE,32.2,40.3,0.00,Snow,Heavy Snow,60,2013-01-06 03:56:00
7:43 PM,-9.4,-14.8,77,29.76,0.5,ENE,32.2,40.3,0.00,Snow,Snow,70,2013-01-06 04:43:00
7:56 PM,-8.9,-13.9,79,29.78,0.5,ENE,34.5,42.6,0.00,Snow,Snow,70,2013-01-06 04:56:00
8:06 PM,-9.4,-14.8,77,29.76,0.2,ENE,34.5,43.7,0.00,Snow,Heavy Snow,70,2013-01-06 05:06:00
8:56 PM,-9.4,-14.8,77,29.77,0.2,ENE,34.5,43.7,N/A,Snow,Heavy Snow,70,2013-01-06 05:56:00
9:42 PM,-9.4,-14.8,77,29.78,0.5,ENE,32.2,43.7,0.00,,Overcast,70,2013-01-06 06:42:00
9:56 PM,-8.9,-13.9,79,29.78,0.5,ENE,34.5,41.4,0.00,Snow,Snow,70,2013-01-06 06:56:00
10:05 PM,-9.4,-14.8,77,29.76,0.2,ENE,35.7,40.3,0.00,Snow,Heavy Snow,60,2013-01-06 07:05:00
10:24 PM,-9.4,-14.8,77,29.77,0.5,ENE,34.5,-,0.00,Snow,Snow,60,2013-01-06 07:24:00
10:43 PM,-9.4,-14.8,77,29.77,0.2,ENE,32.2,39.1,0.00,Snow,Heavy Snow,60,2013-01-06 07:43:00
10:56 PM,-8.9,-13.9,79,29.80,0.5,ENE,33.4,42.6,0.00,Snow,Snow,70,2013-01-06 07:56:00
11:09 PM,-9.4,-14.8,77,29.79,0.2,ENE,33.4,40.3,0.00,Snow,Heavy Snow,70,2013-01-06 08:09:00
11:56 PM,-9.4,-14.8,77,29.81,0.2,ENE,32.2,42.6,N/A,Snow,Heavy Snow,70,2013-01-06 08:56:00